Home > Weather > Niagara Falls > Past weeks

Flag for Canada Weather for the Past 2 Weeks in Niagara Falls, Ontario, Canada

Now
15 °F

Clear.


Feels Like: -1 °F
Forecast: 13 / 18 °F
Wind: 17 mph from West

Location: Niagara Falls International Airport

Current Time: Feb 11, 2016 at 1:54:39 AM

Latest Report: Feb 11, 2016 at 12:53 AM


Visibility: 10 mi

Pressure: 29.87 "Hg

Humidity: 64%

Dew point: 5 °F

Location of Niagara FallsLocation

Historic Weather in Niagara Falls — Graph

°F

Niagara Falls Temperature Yesterday

Maximum temperature yesterday: 31 °F (at 12:02 AM)
Minimum temperature yesterday: 16 °F (at 10:53 PM)
Average temperature yesterday: 25 °F

High & Low Weather Summary for the Past Weeks

 TemperatureHumidityPressure
High60 °F (Feb 3, 1:53 PM)89% (Feb 2, 3:03 AM)30.37 "Hg (Feb 2, 3:03 AM)
Low15 °F (Feb 11, 12:53 AM)44% (Feb 8, 12:53 PM)29.48 "Hg (Feb 10, 12:02 AM)
Average36 °F69%29.89 "Hg
* Reported Jan 27 12:53 AM — Feb 11 12:53 AM, Niagara Falls, Weather by CustomWeather, © 2016

Note: Actual official high and low records may vary slightly from our data, if they occured in-between our weather recording intervals... More about our weather records

Advertising

Niagara Falls Weather History for the Previous 24 Hours

 ConditionsComfort  
Time TempWeatherWind HumidityBarometerVisibility
12:53 AM
Thu, Feb 11
15 °FClear.17 mph64%29.87 "Hg10 mi
11:53 PM
Wed, Feb 10
16 °FPassing clouds.17 mph65%29.88 "Hg10 mi
10:53 PM16 °FPassing clouds.16 mph65%29.87 "Hg10 mi
9:53 PM17 °FLight snow. Mostly cloudy.21 mph68%29.87 "Hg10 mi
8:53 PM18 °FLight snow. Overcast.16 mph68%29.85 "Hg6 mi
7:53 PM19 °FLight snow. Overcast.20 mph68%29.83 "Hg10 mi
6:53 PM20 °FLight snow. Mostly cloudy.17 mph71%29.83 "Hg5 mi
5:53 PM21 °FLight snow. Mostly cloudy.20 mph74%29.80 "Hg6 mi
4:53 PM23 °FLight snow. Mostly cloudy.21 mph72%29.77 "Hg5 mi
3:53 PM24 °FLight snow. Mostly cloudy.21 mph71%29.74 "Hg5 mi
2:53 PM26 °FLight snow. Mostly cloudy.18 mph71%29.70 "Hg7 mi
1:53 PM27 °FLight snow. Mostly cloudy.17 mph72%29.69 "Hg2 mi
12:53 PM27 °FLight snow. Mostly cloudy.14 mph72%29.68 "Hg7 mi
11:53 AM27 °FLight snow. Cloudy.18 mph75%29.68 "Hg3 mi
10:53 AM26 °FLight snow. Mostly cloudy.18 mph77%29.68 "Hg1 mi
9:53 AM26 °FLight snow. Mostly cloudy.17 mph77%29.67 "Hg1 mi
8:53 AM26 °FLight snow. Mostly cloudy.16 mph81%29.66 "Hg2 mi
7:53 AM27 °FLight snow. Mostly cloudy.17 mph78%29.64 "Hg2 mi
7:01 AM28 °FLight snow. Mostly cloudy.20 mph78%29.58 "Hg2 mi
7:00 AM28 °FLight snow. Mostly cloudy.18 mph78%29.58 "Hg3 mi
5:53 AM29 °FLight snow. Mostly cloudy.18 mph79%29.60 "Hg2 mi
5:00 AM29 °FLight snow. Mostly cloudy.18 mph79%29.54 "Hg3 mi
3:53 AM29 °FLight snow. Mostly cloudy.17 mph82%29.55 "Hg2 mi
2:53 AM30 °FLight snow. Overcast.17 mph79%29.54 "Hg7 mi
2:03 AM30 °FLight snow. Overcast.16 mph82%29.49 "Hg2 mi
1:01 AM30 °FLight snow. Ice fog.15 mph85%29.48 "Hg1 mi
Weather by CustomWeather, © 2016

See weather overviewHow to use our weather pages